• en Belgique
  • Liste des pays
  • À 7 jours
  • Température de l'eau
  • Carte satellitaire
  • Carte météo
  • Widgets météo
  • user-avatar
    Se connecter

    Météo par heure à Kos

    Ce jour, 25 Septembre, Mardi

    Heure Température Précipitation Vent Pression Humidité
    00:00 +21°C° 0 mm 2 m/s 762 mmHg 89%
    01:00 +21°C° 0 mm 2 m/s 761 mmHg 89%
    02:00 +21°C° 0 mm 2 m/s 761 mmHg 89%
    03:00 +20°C° 0 mm 2 m/s 761 mmHg 89%
    04:00 +20°C° 0 mm 2 m/s 761 mmHg 88%
    05:00 +20°C° 0 mm 2 m/s 761 mmHg 87%
    06:00 +21°C° 0 mm 2 m/s 761 mmHg 78%
    07:00 +24°C° 0 mm 3 m/s 761 mmHg 68%
    08:00 +25°C° 0 mm 3 m/s 761 mmHg 58%
    09:00 +28°C° 0 mm 4 m/s 761 mmHg 48%
    10:00 +30°C° 0 mm 4 m/s 761 mmHg 39%
    11:00 +34°C° 0 mm 4 m/s 762 mmHg 29%
    12:00 +35°C° 0 mm 5 m/s 761 mmHg 27%
    13:00 +36°C° 0 mm 6 m/s 761 mmHg 25%
    14:00 +38°C° 0 mm 7 m/s 761 mmHg 23%
    15:00 +35°C° 0 mm 8 m/s 761 mmHg 27%
    16:00 +34°C° 0 mm 9 m/s 761 mmHg 31%
    17:00 +33°C° 0 mm 10 m/s 761 mmHg 35%
    18:00 +29°C° 0 mm 10 m/s 761 mmHg 43%
    19:00 +27°C° 0 mm 11 m/s 761 mmHg 52%
    20:00 +23°C° 0 mm 11 m/s 761 mmHg 60%
    21:00 +22°C° 0 mm 11 m/s 762 mmHg 64%
    22:00 +21°C° 0 mm 12 m/s 762 mmHg 68%
    23:00 +18°C° 0 mm 12 m/s 762 mmHg 72%

    Demain, 26 Septembre, Mercredi

    Heure Température Précipitation Vent Pression Humidité
    00:00 +18°C° 0 mm 12 m/s 762 mmHg 73%
    01:00 +17°C° 0 mm 11 m/s 762 mmHg 74%
    02:00 +17°C° 0 mm 11 m/s 762 mmHg 75%
    03:00 +17°C° 0 mm 11 m/s 762 mmHg 75%
    04:00 +16°C° 0 mm 11 m/s 762 mmHg 76%
    05:00 +16°C° 0 mm 11 m/s 762 mmHg 76%
    06:00 +17°C° 0 mm 11 m/s 762 mmHg 71%
    07:00 +18°C° 0 mm 11 m/s 762 mmHg 65%
    08:00 +19°C° 0 mm 11 m/s 762 mmHg 60%
    09:00 +22°C° 0 mm 11 m/s 762 mmHg 52%
    10:00 +24°C° 0 mm 11 m/s 762 mmHg 43%
    11:00 +27°C° 0 mm 11 m/s 762 mmHg 35%
    12:00 +28°C° 0 mm 11 m/s 762 mmHg 33%
    13:00 +28°C° 0 mm 11 m/s 762 mmHg 30%
    14:00 +29°C° 0 mm 11 m/s 761 mmHg 28%
    15:00 +29°C° 0 mm 12 m/s 761 mmHg 29%
    16:00 +28°C° 0 mm 12 m/s 761 mmHg 30%
    17:00 +27°C° 0 mm 13 m/s 760 mmHg 31%
    18:00 +24°C° 0 mm 13 m/s 761 mmHg 35%
    19:00 +22°C° 0 mm 12 m/s 761 mmHg 39%
    20:00 +19°C° 0 mm 12 m/s 761 mmHg 43%
    21:00 +18°C° 0 mm 12 m/s 761 mmHg 46%
    22:00 +17°C° 0 mm 11 m/s 761 mmHg 48%
    23:00 +16°C° 0 mm 10 m/s 761 mmHg 50%

    Après-demain, 27 Septembre, Jeudi

    Heure Température Précipitation Vent Pression Humidité
    00:00 +16°C° 0 mm 10 m/s 760 mmHg 51%
    01:00 +16°C° 0 mm 9 m/s 760 mmHg 51%
    02:00 +16°C° 0 mm 8 m/s 760 mmHg 52%
    03:00 +16°C° 0 mm 7 m/s 759 mmHg 50%
    04:00 +17°C° 0 mm 6 m/s 759 mmHg 49%
    05:00 +17°C° 0 mm 5 m/s 758 mmHg 48%
    06:00 +17°C° 0.1 mm 5 m/s 758 mmHg 51%
    07:00 +18°C° 0.1 mm 4 m/s 759 mmHg 55%
    08:00 +18°C° 0.1 mm 4 m/s 759 mmHg 58%
    09:00 +19°C° 0.2 mm 4 m/s 759 mmHg 56%
    10:00 +21°C° 0.2 mm 5 m/s 759 mmHg 53%
    11:00 +22°C° 0.2 mm 5 m/s 759 mmHg 50%
    12:00 +23°C° 0.1 mm 6 m/s 759 mmHg 53%
    13:00 +24°C° 0.1 mm 6 m/s 759 mmHg 55%
    14:00 +26°C° 0.1 mm 6 m/s 759 mmHg 58%
    15:00 +24°C° 0 mm 6 m/s 759 mmHg 60%
    16:00 +24°C° 0 mm 6 m/s 759 mmHg 62%
    17:00 +23°C° 0 mm 6 m/s 759 mmHg 65%
    18:00 +22°C° 0.2 mm 7 m/s 760 mmHg 69%
    19:00 +21°C° 0.2 mm 7 m/s 760 mmHg 73%
    20:00 +20°C° 0.2 mm 7 m/s 761 mmHg 78%
    21:00 +18°C° 0.3 mm 8 m/s 761 mmHg 79%
    22:00 +18°C° 0.3 mm 9 m/s 761 mmHg 80%
    23:00 +18°C° 0.3 mm 9 m/s 762 mmHg 81%

    28 Septembre, Vendredi

    Heure Température Précipitation Vent Pression Humidité
    00:00 +18°C° 0.3 mm 9 m/s 762 mmHg 82%
    01:00 +17°C° 0.3 mm 9 m/s 762 mmHg 84%
    02:00 +17°C° 0.3 mm 8 m/s 762 mmHg 86%
    03:00 +18°C° 0.2 mm 7 m/s 762 mmHg 85%
    04:00 +19°C° 0.2 mm 6 m/s 762 mmHg 84%
    05:00 +19°C° 0.2 mm 5 m/s 762 mmHg 84%
    06:00 +20°C° 0.1 mm 4 m/s 763 mmHg 80%
    07:00 +21°C° 0.1 mm 4 m/s 763 mmHg 77%
    08:00 +22°C° 0.1 mm 3 m/s 763 mmHg 73%
    09:00 +23°C° 0.1 mm 4 m/s 763 mmHg 68%
    10:00 +25°C° 0.1 mm 5 m/s 764 mmHg 62%
    11:00 +26°C° 0.1 mm 6 m/s 764 mmHg 56%
    12:00 +26°C° 0.2 mm 7 m/s 763 mmHg 55%
    13:00 +26°C° 0.2 mm 7 m/s 763 mmHg 54%
    14:00 +27°C° 0.2 mm 8 m/s 763 mmHg 52%
    15:00 +26°C° 0.1 mm 7 m/s 763 mmHg 58%
    16:00 +24°C° 0.1 mm 7 m/s 763 mmHg 63%
    17:00 +23°C° 0.1 mm 6 m/s 763 mmHg 68%
    18:00 +22°C° 0.1 mm 6 m/s 763 mmHg 72%
    19:00 +20°C° 0.1 mm 6 m/s 763 mmHg 76%
    20:00 +19°C° 0.1 mm 6 m/s 764 mmHg 80%
    21:00 +19°C° 0.1 mm 6 m/s 763 mmHg 80%
    22:00 +19°C° 0.1 mm 6 m/s 763 mmHg 81%
    23:00 +19°C° 0.1 mm 6 m/s 763 mmHg 81%

    29 Septembre, Samedi

    Heure Température Précipitation Vent Pression Humidité
    00:00 +19°C° 0.2 mm 6 m/s 763 mmHg 82%
    01:00 +19°C° 0.2 mm 6 m/s 763 mmHg 82%
    02:00 +19°C° 0.2 mm 5 m/s 763 mmHg 83%
    03:00 +19°C° 0.7 mm 5 m/s 762 mmHg 83%
    04:00 +19°C° 0.7 mm 5 m/s 762 mmHg 83%
    05:00 +19°C° 0.7 mm 4 m/s 762 mmHg 83%
    06:00 +20°C° 0.6 mm 4 m/s 762 mmHg 80%
    07:00 +20°C° 0.6 mm 3 m/s 762 mmHg 76%
    08:00 +21°C° 0.6 mm 3 m/s 762 mmHg 72%
    09:00 +24°C° 0.4 mm 3 m/s 762 mmHg 67%
    10:00 +25°C° 0.4 mm 3 m/s 762 mmHg 62%
    11:00 +26°C° 0.4 mm 2 m/s 762 mmHg 57%
    12:00 +26°C° 0.8 mm 2 m/s 762 mmHg 58%
    13:00 +26°C° 0.8 mm 2 m/s 762 mmHg 59%
    14:00 +25°C° 0.8 mm 2 m/s 762 mmHg 61%
    15:00 +25°C° 1.2 mm 2 m/s 761 mmHg 64%
    16:00 +24°C° 1.2 mm 1 m/s 761 mmHg 67%
    17:00 +23°C° 1.2 mm 1 m/s 761 mmHg 71%
    18:00 +23°C° 1 mm 1 m/s 762 mmHg 73%
    19:00 +22°C° 1 mm 1 m/s 762 mmHg 76%
    20:00 +21°C° 1 mm 1 m/s 762 mmHg 78%
    21:00 +20°C° 0.2 mm 2 m/s 762 mmHg 79%
    22:00 +20°C° 0.2 mm 2 m/s 762 mmHg 80%
    23:00 +19°C° 0.2 mm 3 m/s 762 mmHg 80%

    30 Septembre, Dimanche

    Heure Température Précipitation Vent Pression Humidité
    00:00 +19°C° 0.1 mm 3 m/s 762 mmHg 82%
    01:00 +19°C° 0.1 mm 3 m/s 762 mmHg 83%
    02:00 +19°C° 0.1 mm 3 m/s 762 mmHg 85%
    03:00 +18°C° 0.1 mm 3 m/s 762 mmHg 86%
    04:00 +18°C° 0.1 mm 3 m/s 762 mmHg 86%
    05:00 +18°C° 0.1 mm 3 m/s 762 mmHg 87%
    06:00 +19°C° 0 mm 4 m/s 763 mmHg 83%
    07:00 +19°C° 0 mm 4 m/s 763 mmHg 78%
    08:00 +20°C° 0 mm 4 m/s 763 mmHg 73%
    09:00 +22°C° 0 mm 4 m/s 763 mmHg 65%
    10:00 +25°C° 0 mm 4 m/s 763 mmHg 56%
    11:00 +27°C° 0 mm 4 m/s 763 mmHg 48%
    12:00 +27°C° 0 mm 4 m/s 763 mmHg 45%
    13:00 +28°C° 0 mm 5 m/s 763 mmHg 42%
    14:00 +29°C° 0 mm 5 m/s 763 mmHg 39%
    15:00 +28°C° 0 mm 6 m/s 763 mmHg 42%
    16:00 +28°C° 0 mm 6 m/s 763 mmHg 44%
    17:00 +27°C° 0 mm 6 m/s 763 mmHg 47%
    18:00 +26°C° 0 mm 6 m/s 763 mmHg 53%
    19:00 +23°C° 0 mm 6 m/s 763 mmHg 59%
    20:00 +22°C° 0 mm 6 m/s 763 mmHg 66%
    21:00 +21°C° 0 mm 6 m/s 763 mmHg 66%
    22:00 +21°C° 0 mm 6 m/s 763 mmHg 66%
    23:00 +20°C° 0 mm 5 m/s 763 mmHg 66%
    Voir plus